FW3072 Weather Reports


Display with metric or nautical units.
time (UTC)temp
F
wind
direction
speed
MPH
gust
MPH
rain 1hr
in
rain 24hr
in
rain mn
in
humidity
%
barometer
mb
20260902053225 71 360 0.0 0.0 0.00 0.04 0.00 94 1014.1
20260902052203 71 360 0.0 0.0 0.00 0.04 0.00 94 1014.0
20260902051204 71 360 0.0 0.0 0.00 0.04 0.00 94 1014.1
20260902050202 71 360 0.0 0.0 0.00 0.04 0.00 94 1014.2
20260902045202 71 360 0.0 0.0 0.00 0.04 0.00 94 1014.1
20260902044203 71 360 0.0 0.0 0.00 0.04 0.00 94 1014.0
20260902043204 71 360 0.0 0.0 0.00 0.04 0.00 93 1014.0
20260902042204 71 360 0.0 0.0 0.00 0.04 0.00 93 1014.1
20260902041203 72 360 0.0 0.0 0.00 0.04 0.00 93 1014.0
20260902040204 72 360 0.0 0.0 0.00 0.04 0.00 93 1013.9
20260902035202 72 360 0.0 0.0 0.00 0.04 0.04 93 1013.9
20260902034203 72 360 0.0 0.0 0.00 0.04 0.04 93 1013.8
20260902033202 73 360 0.0 0.0 0.00 0.04 0.04 93 1013.8
20260902032203 73 360 0.0 0.0 0.00 0.04 0.04 93 1013.7
20260902031203 73 360 0.0 0.0 0.00 0.04 0.04 93 1013.7
20260902030203 73 360 0.0 0.0 0.00 0.04 0.04 93 1013.7
20260902025225 73 360 0.0 0.0 0.00 0.04 0.04 93 1013.7
20260902024225 73 360 0.0 0.0 0.00 0.04 0.04 92 1013.8
20260902023245 74 360 0.0 0.0 0.00 0.04 0.04 92 1013.9
20260902022202 74 360 0.0 0.0 0.00 0.04 0.04 92 1013.9
20260902021202 74 360 0.0 0.0 0.00 0.04 0.04 92 1013.9
20260902020203 74 360 0.0 0.0 0.00 0.04 0.04 92 1013.9
20260902015202 74 360 0.0 0.0 0.00 0.04 0.04 92 1013.9
20260902014204 74 360 0.0 0.0 0.00 0.04 0.04 92 1013.9
20260902013223 75 360 0.0 0.0 0.00 0.04 0.04 91 1013.8
20260902012202 75 360 0.0 0.0 0.00 0.04 0.04 91 1013.9
20260902011202 75 360 0.0 0.0 0.00 0.04 0.04 90 1013.8
20260902010225 75 360 0.0 0.0 0.00 0.04 0.04 90 1013.7
20260902005202 76 360 0.0 0.0 0.00 0.04 0.04 89 1013.4
20260902004203 76 360 0.0 0.0 0.00 0.04 0.04 89 1013.4
20260902003203 76 360 0.0 0.0 0.00 0.06 0.04 89 1013.2
20260902002202 77 360 0.0 0.0 0.00 0.06 0.04 88 1013.1
20260902001203 77 360 0.0 0.0 0.00 0.06 0.04 87 1012.9
20260902000204 78 360 0.0 0.0 0.00 0.06 0.04 87 1012.9
20260901235226 78 360 0.0 0.0 0.00 0.06 0.04 86 1012.8
20260901234203 79 360 0.0 0.0 0.00 0.06 0.04 86 1012.9
20260901233224 79 360 0.0 0.0 0.00 0.06 0.04 86 1012.8
20260901232203 79 360 0.0 0.0 0.00 0.06 0.04 86 1012.9
20260901231202 80 360 0.0 1.0 0.00 0.06 0.04 85 1013.0
20260901230203 80 360 0.0 1.0 0.00 0.06 0.04 86 1013.1
20260901225202 80 360 0.0 0.0 0.00 0.06 0.04 85 1013.2
20260901224203 80 360 0.0 1.0 0.00 0.06 0.04 85 1013.3
20260901223202 81 360 0.0 1.0 0.00 0.06 0.04 84 1013.4
20260901222224 81 359 0.0 2.0 0.00 0.06 0.04 84 1013.2
20260901221202 81 359 1.0 4.0 0.00 0.06 0.04 84 1013.1
20260901220202 81 359 0.0 3.0 0.00 0.06 0.04 84 1013.2
20260901215203 81 360 0.0 1.0 0.00 0.06 0.04 83 1013.2
20260901214225 81 253 0.0 2.0 0.00 0.06 0.04 83 1013.3
20260901212224 82 360 0.0 1.0 0.00 0.06 0.04 82 1013.1
20260901211224 82 359 0.0 1.0 0.00 0.06 0.04 82 1013.1
20260901210203 82 360 0.0 1.0 0.00 0.06 0.04 83 1013.1
20260901205225 82 360 0.0 2.0 0.00 0.06 0.04 83 1013.0
20260901204202 81 360 0.0 3.0 0.00 0.06 0.04 82 1013.2
20260901203202 81 360 0.0 3.0 0.00 0.06 0.04 82 1013.2
20260901202202 81 359 0.0 2.0 0.00 0.06 0.04 83 1013.2
20260901201202 81 360 0.0 2.0 0.00 0.06 0.04 83 1013.3
20260901200224 81 359 0.0 2.0 0.00 0.06 0.04 83 1013.4
20260901195202 82 359 0.0 2.0 0.00 0.06 0.04 83 1013.3
20260901194204 82 360 0.0 4.0 0.00 0.07 0.04 82 1013.3
20260901193203 82 360 0.0 2.0 0.00 0.07 0.04 83 1013.2
20260901192202 83 360 0.0 5.0 0.00 0.07 0.04 82 1013.2
20260901191203 83 359 0.0 5.0 0.00 0.07 0.04 82 1013.3
20260901190202 82 358 2.0 4.0 0.00 0.07 0.04 83 1013.4
20260901185203 82 360 0.0 0.0 0.00 0.07 0.04 83 1013.4
20260901184202 82 360 0.0 0.0 0.00 0.07 0.04 83 1013.5
20260901183203 81 360 0.0 5.0 0.00 0.09 0.04 83 1013.5
20260901182202 81 360 0.0 8.0 0.00 0.09 0.04 84 1013.5
20260901181247 81 359 1.0 3.0 0.00 0.09 0.04 85 1013.4
20260901180203 81 359 1.0 4.0 0.00 0.09 0.04 85 1013.3
20260901175223 81 359 0.0 6.0 0.00 0.09 0.04 85 1013.2
20260901174204 81 360 0.0 3.0 0.00 0.10 0.04 84 1013.1
20260901173223 82 359 1.0 8.0 0.00 0.10 0.04 83 1013.0
20260901172224 82 359 2.0 5.0 0.00 0.10 0.04 83 1012.8
20260901171203 82 359 1.0 4.0 0.00 0.11 0.04 83 1012.9
20260901170202 82 359 2.0 9.0 0.00 0.11 0.04 83 1012.8
20260901165225 82 359 0.0 6.0 0.00 0.11 0.04 81 1012.8
20260901164202 83 359 2.0 6.0 0.00 0.11 0.04 81 1013.0
20260901163202 83 359 5.0 8.0 0.00 0.11 0.04 83 1012.9
20260901162203 82 359 4.0 9.0 0.00 0.11 0.04 84 1012.8
20260901161223 81 358 3.0 6.0 0.00 0.11 0.04 85 1012.9
20260901160202 80 359 3.0 6.0 0.00 0.11 0.04 87 1012.9
20260901155203 80 355 3.0 5.0 0.00 0.11 0.04 88 1012.9
20260901154203 79 359 3.0 8.0 0.00 0.11 0.04 88 1012.9
20260901153223 79 359 5.0 9.0 0.00 0.11 0.04 90 1012.9
20260901152204 78 359 4.0 8.0 0.00 0.11 0.04 92 1013.0
20260901151202 77 359 1.0 5.0 0.00 0.11 0.04 93 1012.8
20260901150203 76 359 2.0 8.0 0.00 0.11 0.04 94 1012.8
20260901145202 76 359 0.0 5.0 0.00 0.11 0.04 95 1012.8
20260901144203 75 359 1.0 5.0 0.00 0.11 0.04 95 1012.7
20260901143203 75 359 3.0 5.0 0.00 0.11 0.04 95 1012.7
20260901142223 75 359 0.0 8.0 0.00 0.12 0.04 96 1012.9
20260901141202 75 359 1.0 5.0 0.00 0.12 0.04 96 1013.0
20260901140206 74 359 1.0 6.0 0.00 0.13 0.04 96 1013.0
20260901135202 74 359 0.0 5.0 0.00 0.14 0.04 96 1013.0
20260901134203 74 359 2.0 5.0 0.00 0.18 0.04 96 1013.0
20260901133203 73 359 2.0 6.0 0.00 0.20 0.04 96 1013.0
20260901132202 73 359 2.0 5.0 0.00 0.22 0.04 96 1013.1
20260901131204 73 359 3.0 5.0 0.00 0.24 0.04 96 1013.2
20260901130203 73 360 0.0 5.0 0.00 0.26 0.04 96 1013.3
20260901125224 73 359 1.0 6.0 0.00 0.28 0.04 96 1013.3
20260901124202 72 359 2.0 8.0 0.00 0.29 0.04 96 1013.3
20260901123204 72 359 2.0 5.0 0.00 0.34 0.04 96 1013.3
20260901122202 72 359 0.0 5.0 0.00 0.38 0.04 96 1013.2
20260901121204 72 359 0.0 4.0 0.00 0.44 0.04 96 1013.0
20260901120203 71 359 0.0 5.0 0.00 0.47 0.04 96 1012.9
20260901115202 71 360 0.0 4.0 0.00 0.47 0.04 96 1012.9
20260901114203 71 360 0.0 3.0 0.00 0.47 0.04 96 1012.9
20260901113202 71 359 0.0 4.0 0.00 0.47 0.04 96 1012.8
20260901112203 70 359 0.0 1.0 0.00 0.48 0.04 96 1012.8
20260901111203 70 360 0.0 0.0 0.00 0.48 0.04 96 1012.7
20260901110225 70 360 0.0 2.0 0.00 0.48 0.04 96 1012.7
20260901105203 70 359 0.0 2.0 0.00 0.49 0.04 96 1012.6
20260901104202 70 360 0.0 1.0 0.00 0.50 0.04 96 1012.6
20260901103203 70 359 0.0 3.0 0.00 0.50 0.04 96 1012.5
20260901102202 70 360 0.0 1.0 0.00 0.51 0.04 96 1012.4
20260901101202 70 360 0.0 0.0 0.00 0.51 0.04 96 1012.2
20260901100203 70 360 0.0 0.0 0.00 0.52 0.04 96 1012.1
20260901095202 70 360 0.0 0.0 0.00 0.52 0.04 96 1012.0
20260901094202 70 360 0.0 0.0 0.00 0.52 0.04 96 1012.1
20260901093202 70 360 0.0 0.0 0.00 0.52 0.04 96 1012.1
20260901092202 70 360 0.0 0.0 0.00 0.52 0.04 96 1012.1
20260901091203 70 360 0.0 0.0 0.00 0.52 0.04 96 1012.0
20260901090203 70 360 0.0 0.0 0.00 0.52 0.04 96 1012.1
20260901085203 69 360 0.0 0.0 0.02 0.52 0.04 96 1012.1
20260901084204 69 360 0.0 0.0 0.02 0.52 0.04 96 1011.9
20260901083205 69 360 0.0 0.0 0.02 0.52 0.04 96 1011.9
20260901082224 70 360 0.0 0.0 0.01 0.51 0.03 96 1012.0
20260901081223 70 360 0.0 0.0 0.01 0.51 0.03 96 1012.0
20260901080203 69 360 0.0 0.0 0.00 0.50 0.02 96 1012.2
20260901075202 69 360 0.0 0.0 0.02 0.50 0.02 96 1012.1
20260901074203 69 360 0.0 0.0 0.02 0.50 0.02 96 1012.2
20260901073224 69 360 0.0 0.0 0.00 0.49 0.00 96 1012.3
20260901072202 69 360 0.0 0.0 0.00 0.49 0.00 96 1012.4
20260901071203 69 360 0.0 0.0 0.00 0.49 0.00 96 1012.7
20260901070202 69 360 0.0 0.0 0.00 0.49 0.00 96 1012.6
20260901065203 69 360 0.0 0.0 0.00 0.50 0.00 96 1012.8
20260901064225 69 360 0.0 0.0 0.00 0.52 0.00 96 1012.9
20260901063203 69 360 0.0 0.0 0.00 0.54 0.00 96 1013.0
20260901062202 69 360 0.0 0.0 0.00 0.54 0.00 96 1013.2
20260901061203 69 360 0.0 0.0 0.00 0.55 0.00 96 1013.4
20260901060203 69 360 0.0 0.0 0.00 0.56 0.00 96 1013.5
20260901055203 69 360 0.0 0.0 0.00 0.57 0.00 96 1013.6
20260901054203 69 360 0.0 0.0 0.00 0.57 0.00 96 1013.7